Location: Lac Echo
(45.9375°N, 75.4580°W)
Time: 15:07:13
(UTC-04:00)

Amateur Radio Satellites - All Passes

Search period start: 22 May 2015 14:37
Search period end: 23 May 2015 14:37
Location: Lac Echo, 45.9375°N, 75.4580°W

Satellite Date Start Highest point End Downlink Frequencies (MHz)
Time Altitude Azimuth
SPROUT 22 May 14:44:41 14:47:40 18° 296° (WNW) 14:50:30 437.525
JAS-2 22 May 14:47:04 14:52:39 30° 65° (ENE) 14:57:50 435.910
Oscar 19 22 May 14:56:22 15:00:10 20° 270° (W) 15:03:50 437.125/150
ITAMSAT 1 22 May 14:57:05 15:02:09 56° 259° (W) 15:07:16 435.822/435.867
Gurwin Techsat 1B 22 May 15:04:31 15:09:42 53° 260° (W) 15:14:55 435.225
Cosmos 2499 22 May 15:08:26 15:15:33 35° 87° (E) 15:22:23 435.465 / 435.565
STARS 22 May 15:10:31 15:12:55 15° 89° (E) 15:15:29 437.465
HORYU 2 22 May 15:20:47 15:25:03 45° 71° (ENE) 15:29:22 437.375
CUSAT 1 22 May 15:24:15 15:30:53 37° 296° (WNW) 15:38:21 437.405
ITUPSAT 1 22 May 15:27:24 15:32:04 52° 289° (WNW) 15:36:42 437.325
KKS-1 22 May 15:28:42 15:32:49 34° 96° (E) 15:36:55 437.445
BEESAT 22 May 15:38:38 15:43:07 41° 291° (WNW) 15:47:33 436.000
SWISSCUBE 22 May 15:46:27 15:50:43 33° 293° (WNW) 15:54:56 437.505
GONETS M04 22 May 16:00:16 16:07:59 31° 297° (WNW) 16:15:32
DANDE 22 May 16:01:40 16:07:43 28° 302° (WNW) 16:14:28 436.750
O/OREOS (USA 219) 22 May 16:02:06 16:04:44 16° 101° (E) 16:07:32 437.305
RS-15 22 May 16:06:16 16:16:07 33° 17° (NNE) 16:26:28 29.354- 29.394
MOZHAYETS 4 22 May 16:22:41 16:24:01 11° 85° (E) 16:25:37
AO-7 22 May 16:27:28 16:35:43 67° 255° (WSW) 16:44:01 29.400- 29.500
JAS-2 22 May 16:30:45 16:37:34 56° 260° (W) 16:43:35 435.910
CUTE-I 22 May 16:35:55 16:37:32 12° 54° (NE) 16:39:25 437.470
STARS 22 May 16:45:26 16:49:51 62° 287° (WNW) 16:54:12 437.465
Cubesat XI-IV 22 May 16:53:12 16:56:19 16° 58° (ENE) 16:59:38 437.490
HORYU 2 22 May 16:58:34 17:01:58 20° 268° (W) 17:05:15 437.375
Cosmos 2499 22 May 17:00:29 17:08:31 53° 286° (WNW) 17:15:57 435.465 / 435.565
KKS-1 22 May 17:05:32 17:09:21 27° 294° (WNW) 17:13:05 437.445
O/OREOS (USA 219) 22 May 17:39:14 17:43:44 60° 298° (WNW) 17:48:12 437.305
YUBILEINY 22 May 17:45:25 17:51:46 23° 58° (ENE) 17:58:24 435.215
MOZHAYETS 4 22 May 17:57:21 18:01:57 82° 283° (WNW) 18:06:30
CUTE-I 22 May 18:11:30 18:16:45 68° 73° (ENE) 18:22:04 437.470
RS-15 22 May 18:19:41 18:31:10 68° 47° (NE) 18:43:11 29.354- 29.394
AO-7 22 May 18:26:29 18:30:24 13° 278° (W) 18:33:43 29.400- 29.500
Cubesat XI-IV 22 May 18:30:29 18:35:49 84° 256° (WSW) 18:41:11 437.490
HO-68 22 May 18:37:52 18:41:43 16° 49° (NE) 18:45:50 435.675
STRAND 1 22 May 18:41:48 18:43:35 12° 85° (E) 18:45:40 437.568
BRITE-PL 22 May 18:52:55 18:56:14 18° 59° (ENE) 18:59:52 437.365/2234.400
BEESAT 3 22 May 18:57:42 19:00:42 20° 114° (ESE) 19:03:47 437.485
Cosmos 2499 22 May 19:01:41 19:03:50 11° 310° (NW) 19:05:25 435.465 / 435.565
DOVE 4 22 May 19:09:52 19:11:40 12° 56° (NE) 19:13:44 437.250
GOMX 1 22 May 19:20:28 19:24:11 21° 62° (ENE) 19:28:10 467.674
CUBESAT XI-V 22 May 19:21:57 19:26:38 65° 101° (E) 19:31:18 437.345
MOZHAYETS 4 22 May 19:37:09 19:38:29 11° 302° (WNW) 19:39:36
BEESAT 2 22 May 19:38:39 19:42:30 42° 119° (ESE) 19:46:27 435.950
YUBILEINY 22 May 19:41:15 19:50:02 89° 259° (W) 19:58:44 435.215
PRISM 22 May 19:41:16 19:45:15 46° 99° (E) 19:49:16 437.425
AAUSAT CUBESAT 2 22 May 19:44:36 19:45:16 10° 60° (ENE) 19:46:09 437.432
Cosmos 2491 22 May 19:45:39 19:53:53 49° 89° (E) 20:02:16 435.465 / 435.565
CUTE-I 22 May 19:53:50 19:57:26 18° 271° (W) 20:00:50 437.470
CANX-2 22 May 20:04:19 20:08:02 30° 69° (ENE) 20:11:48 2200.000
CUTE 1.7 + AOD 2 22 May 20:08:39 20:12:23 30° 68° (ENE) 20:16:08 437.475
Cosmos 2504 22 May 20:14:20 20:18:35 17° 56° (NE) 20:23:06 435.465 / 435.565
Cubesat XI-IV 22 May 20:14:56 20:16:52 12° 276° (W) 20:18:29 437.490
M-CUBED/EXP-1 PRIME 22 May 20:16:23 20:19:35 41° 104° (ESE) 20:22:44 437.505
STRAND 1 22 May 20:18:28 20:23:39 89° 115° (ESE) 20:28:48 437.568
HO-68 22 May 20:21:11 20:28:15 66° 69° (ENE) 20:35:23 435.675
AIST 1 22 May 20:23:49 20:25:14 12° 84° (E) 20:26:52
BRITE-PL 22 May 20:29:09 20:34:06 73° 258° (WSW) 20:39:32 437.365/2234.400
AUBIESAT-1 22 May 20:29:15 20:32:33 51° 105° (ESE) 20:35:46 437.475
RS-15 22 May 20:32:34 20:43:15 43° 249° (WSW) 20:54:08 29.354- 29.394
FUNcube-1 22 May 20:34:20 20:35:43 11° 59° (ENE) 20:37:19 145.935
BEESAT 3 22 May 20:34:25 20:38:24 48° 311° (NW) 20:42:25 437.485
AIST 2 22 May 20:34:39 20:38:45 47° 120° (ESE) 20:42:54 435.215
SEEDS 22 May 20:38:37 20:42:43 50° 72° (ENE) 20:46:51 437.485
DELFI C3 22 May 20:43:08 20:45:19 15° 63° (ENE) 20:47:39 145.870
DOVE 4 22 May 20:43:30 20:48:31 72° 73° (ENE) 20:53:48 437.250
CUBEBUG 2 22 May 20:46:55 20:50:37 23° 65° (ENE) 20:54:25 437.445
GOMX 1 22 May 20:56:50 21:01:49 62° 260° (W) 21:07:09 467.674
CINEMA 3 22 May 20:57:51 21:02:38 52° 72° (ENE) 21:07:34 145.822/145.860
COMPASS 1 22 May 20:59:43 21:03:53 69° 76° (ENE) 21:08:05 437.405
CUBESAT XI-V 22 May 21:00:36 21:03:37 17° 298° (WNW) 21:06:31 437.345
ZACube-1 22 May 21:10:05 21:13:47 25° 66° (ENE) 21:17:32 437.345
AAUSAT CUBESAT 2 22 May 21:16:05 21:20:17 89° 47° (NE) 21:24:29 437.432
BEESAT 2 22 May 21:17:10 21:20:45 27° 319° (NW) 21:24:18 435.950
PRISM 22 May 21:17:31 21:20:25 18° 296° (WNW) 21:23:14 437.425
UKube-1 22 May 21:23:21 21:26:05 17° 62° (ENE) 21:28:56 .
DX 1 22 May 21:24:33 21:27:31 19° 63° (ENE) 21:30:37 434.975-435.025
Oscar 11 22 May 21:33:15 21:37:33 66° 74° (ENE) 21:41:52 145.826/435.025
YUBILEINY 22 May 21:39:47 21:45:46 20° 282° (WNW) 21:51:21 435.215
CANX-2 22 May 21:40:15 21:43:58 28° 266° (W) 21:47:38 2200.000
Cosmos 2491 22 May 21:42:39 21:50:57 43° 291° (WNW) 21:59:13 435.465 / 435.565
UWE-3 22 May 21:43:32 21:48:09 63° 73° (ENE) 21:52:49 435.000/436.395/437.385
HUMSAT D 22 May 21:44:16 21:47:46 25° 67° (ENE) 21:51:21 437.325/437.525
CUTE 1.7 + AOD 2 22 May 21:44:35 21:48:18 27° 266° (W) 21:51:57 437.475
AISAT 22 May 21:49:31 21:52:27 18° 63° (ENE) 21:55:31 437.250
M-CUBED/EXP-1 PRIME 22 May 21:52:17 21:54:11 14° 302° (WNW) 21:55:57 437.505
AIST 1 22 May 21:58:08 22:02:22 67° 281° (W) 22:06:38
STRAND 1 22 May 21:59:19 22:02:12 15° 302° (WNW) 22:04:54 437.568
AUBIESAT-1 22 May 22:05:38 22:06:59 12° 303° (WNW) 22:08:11 437.475
Cosmos 2504 22 May 22:06:07 22:13:28 82° 80° (E) 22:20:39 435.465 / 435.565
FUNcube-1 22 May 22:06:46 22:11:22 83° 76° (ENE) 22:15:59 145.935
HO-68 22 May 22:10:34 22:16:35 27° 268° (W) 22:22:26 435.675
50 SAT 22 May 22:12:51 22:16:14 27° 68° (ENE) 22:19:40 437.505
AIST 2 22 May 22:13:55 22:17:33 26° 320° (NW) 22:21:10 435.215
DELFI C3 22 May 22:16:03 22:20:02 57° 259° (W) 22:24:01 145.870
BEESAT 3 22 May 22:16:06 22:17:24 11° 333° (NNW) 22:18:36 437.485
SEEDS 22 May 22:16:06 22:18:52 16° 270° (W) 22:21:28 437.485
CUBEBUG 2 22 May 22:22:26 22:27:02 46° 262° (W) 22:31:39 437.445
DOVE 4 22 May 22:23:42 22:26:56 16° 274° (W) 22:30:03 437.250
UNISAT 6 22 May 22:25:04 22:26:32 12° 86° (E) 22:28:13 437.425
CINEMA 3 22 May 22:36:20 22:40:10 21° 270° (W) 22:43:56 145.822/145.860
CUSAT 1 22 May 22:36:58 22:40:07 13° 45° (NE) 22:43:28 437.405
COMPASS 1 22 May 22:38:27 22:40:07 12° 273° (W) 22:41:33 437.405
ESTCUBE 1 22 May 22:38:48 22:42:42 30° 67° (ENE) 22:46:39 437.505/2401.250
ZACube-1 22 May 22:45:35 22:49:57 40° 263° (W) 22:54:18 437.345
VELOX 1 22 May 22:54:20 22:58:44 71° 74° (ENE) 23:03:11 145.980
UKube-1 22 May 22:57:35 23:01:50 56° 259° (W) 23:06:07 .
DX 1 22 May 22:59:12 23:03:26 51° 260° (W) 23:07:43 434.975-435.025
ANTELSAT 22 May 23:06:22 23:10:18 31° 95° (E) 23:14:12 437.575/2403.000
CUBEBUG 1 22 May 23:06:42 23:10:54 49° 71° (ENE) 23:15:09 437.445
Oscar 11 22 May 23:12:03 23:14:15 13° 273° (W) 23:16:15 145.826/435.025
TISAT 1 22 May 23:12:46 23:14:51 14° 61° (ENE) 23:17:05 437.305
DANDE 22 May 23:14:07 23:19:45 20° 52° (NE) 23:25:11 436.750
HUMSAT D 22 May 23:19:22 23:23:23 35° 264° (W) 23:27:22 437.325/437.525
UWE-3 22 May 23:22:09 23:25:09 16° 272° (W) 23:27:58 435.000/436.395/437.385
POLYITAN 1 22 May 23:23:14 23:26:35 22° 92° (E) 23:29:59 437.675
QB50P1 22 May 23:23:56 23:27:18 22° 93° (E) 23:30:42 145.935-145.965
AISAT 22 May 23:24:17 23:28:39 56° 260° (W) 23:33:05 437.250
BUGSAT 1 22 May 23:30:31 23:33:25 18° 91° (E) 23:36:26 437.445
TIGRISAT 22 May 23:41:11 23:45:40 69° 102° (ESE) 23:49:59 435.000
FUNcube-1 22 May 23:46:41 23:48:23 12° 275° (W) 23:49:49 145.935
50 SAT 22 May 23:47:26 23:50:55 27° 265° (W) 23:54:22 437.505
NANOSAT C BR1 22 May 23:56:34 00:00:44 47° 99° (E) 00:04:52 145.865
UNISAT 6 22 May 23:59:31 00:04:01 76° 284° (WNW) 00:08:21 437.425
QB50P2 23 May 00:00:56 00:05:10 55° 100° (E) 00:09:22 145.880/145.840
Cosmos 2504 23 May 00:01:08 00:05:58 19° 280° (W) 00:10:26 435.465 / 435.565
SPROUT 23 May 00:03:59 00:08:12 55° 73° (ENE) 00:12:29 437.525
GONETS M04 23 May 00:09:02 00:17:05 38° 67° (ENE) 00:25:09
POPSAT HIP 1 23 May 00:14:25 00:18:45 75° 102° (ESE) 00:23:01 437.405
ESTCUBE 1 23 May 00:15:35 00:19:33 30° 265° (W) 00:23:30 437.505/2401.250
CUSAT 1 23 May 00:17:30 00:25:13 52° 70° (ENE) 00:31:33 437.405
DUCHIFAT 1 23 May 00:20:20 00:24:39 84° 102° (ESE) 00:28:55 145.980
VELOX 1 23 May 00:33:48 00:35:53 13° 273° (W) 00:37:46 145.980
ANTELSAT 23 May 00:43:11 00:47:04 29° 293° (WNW) 00:50:46 437.575/2403.000
CUBEBUG 1 23 May 00:44:33 00:47:36 18° 270° (W) 00:50:31 437.445
TISAT 1 23 May 00:45:54 00:50:07 70° 257° (WSW) 00:54:24 437.305
DANDE 23 May 00:56:18 01:04:46 76° 76° (ENE) 01:11:47 436.750
Cosmos 2499 23 May 00:58:00 01:00:25 12° 52° (NE) 01:03:15 435.465 / 435.565
POLYITAN 1 23 May 00:58:37 01:02:38 38° 290° (WNW) 01:06:35 437.675
QB50P1 23 May 00:59:18 01:03:18 38° 290° (WNW) 01:07:15 145.935-145.965
ITUPSAT 1 23 May 00:59:29 01:03:35 30° 66° (ENE) 01:07:45 437.325
BUGSAT 1 23 May 01:05:03 01:09:11 47° 289° (WNW) 01:13:16 437.445
BEESAT 23 May 01:09:56 01:14:18 38° 68° (ENE) 01:18:42 436.000
ISS 23 May 01:09:57 01:12:26 20° 138° (SE) 01:14:58 145.825
SWISSCUBE 23 May 01:17:27 01:21:59 48° 70° (ENE) 01:26:34 437.505
TIGRISAT 23 May 01:19:21 01:21:53 15° 299° (WNW) 01:24:15 435.000
Oscar 19 23 May 01:25:30 01:28:46 17° 88° (E) 01:32:13 437.125/150
NANOSAT C BR1 23 May 01:33:10 01:36:15 19° 296° (WNW) 01:39:14 145.865
QB50P2 23 May 01:37:52 01:40:42 17° 297° (WNW) 01:43:24 145.880/145.840
SPROUT 23 May 01:42:01 01:44:42 16° 271° (W) 01:47:15 437.525
POPSAT HIP 1 23 May 01:51:57 01:54:05 13° 299° (WNW) 01:56:03 437.405
DUCHIFAT 1 23 May 01:58:12 01:59:53 12° 300° (WNW) 02:01:22 145.980
CUSAT 1 23 May 02:00:43 02:07:36 35° 274° (W) 02:13:16 437.405
GONETS M04 23 May 02:05:49 02:14:19 54° 270° (W) 02:22:40
O/OREOS (USA 219) 23 May 02:07:36 02:11:55 46° 60° (ENE) 02:16:14 437.305
STARS 23 May 02:09:43 02:12:47 19° 63° (ENE) 02:15:58 437.465
BEESAT 2 23 May 02:18:48 02:20:33 12° 29° (NNE) 02:22:23 435.950
PCSat 23 May 02:19:54 02:25:13 62° 118° (ESE) 02:30:36 145.827
KKS-1 23 May 02:29:04 02:33:17 43° 70° (ENE) 02:37:34 437.445
ITUPSAT 1 23 May 02:37:04 02:41:25 34° 264° (W) 02:45:45 437.325
DANDE 23 May 02:40:38 02:47:08 26° 278° (W) 02:52:38 436.750
ISS 23 May 02:45:21 02:48:36 68° 335° (NNW) 02:51:52 145.825
BEESAT 23 May 02:48:12 02:52:15 27° 266° (W) 02:56:15 436.000
Cosmos 2499 23 May 02:48:23 02:55:28 64° 77° (ENE) 03:02:30 435.465 / 435.565
SWISSCUBE 23 May 02:56:28 03:00:08 21° 269° (W) 03:03:41 437.505
Oscar 19 23 May 03:03:32 03:08:42 67° 287° (WNW) 03:13:47 437.125/150
ITAMSAT 1 23 May 03:07:19 03:12:17 43° 98° (E) 03:17:16 435.822/435.867
BEESAT 3 23 May 03:13:09 03:16:49 30° 43° (NE) 03:20:27 437.485
AIST 2 23 May 03:16:39 03:18:55 14° 30° (NNE) 03:21:17 435.215
Gurwin Techsat 1B 23 May 03:18:03 03:23:14 51° 99° (E) 03:28:24 435.225
MOZHAYETS 4 23 May 03:26:37 03:29:19 16° 62° (ENE) 03:32:11
JAS-2 23 May 03:39:11 03:41:47 14° 86° (E) 03:44:38 435.910
STARS 23 May 03:44:33 03:48:53 52° 260° (W) 03:53:16 437.465
O/OREOS (USA 219) 23 May 03:47:44 03:51:03 20° 257° (WSW) 03:54:15 437.305
BEESAT 2 23 May 03:55:28 03:59:33 58° 50° (NE) 04:03:34 435.950
PCSat 23 May 04:04:27 04:09:04 27° 318° (NW) 04:13:40 145.827
KKS-1 23 May 04:06:39 04:10:09 21° 268° (W) 04:13:33 437.445
VERMONT LUNAR 23 May 04:18:00 04:19:56 15° 158° (SSE) 04:21:54 437.305
ISS 23 May 04:22:28 04:25:23 29° 355° (N) 04:28:20 145.825
AO-7 23 May 04:26:21 04:33:55 37° 96° (E) 04:41:34 29.400- 29.500
SO-50 23 May 04:37:25 04:41:55 49° 120° (ESE) 04:46:37 436.795
Cosmos 2499 23 May 04:42:31 04:48:04 24° 277° (W) 04:53:22 435.465 / 435.565
Oscar 19 23 May 04:45:43 04:47:10 11° 305° (NW) 04:48:22 437.125/150
HORYU 2 23 May 04:45:52 04:50:18 65° 101° (E) 04:54:42 437.375
ITAMSAT 1 23 May 04:47:11 04:51:38 28° 296° (WNW) 04:56:00 435.822/435.867
BEESAT 3 23 May 04:51:06 04:54:49 34° 242° (WSW) 04:58:28 437.485
AIST 2 23 May 04:54:06 04:58:21 68° 52° (NE) 05:02:30 435.215
CUBESAT XI-V 23 May 04:54:11 04:55:28 11° 58° (ENE) 04:56:58 437.345
Gurwin Techsat 1B 23 May 04:58:37 05:02:57 25° 297° (WNW) 05:07:09 435.225
MOZHAYETS 4 23 May 05:01:32 05:06:06 66° 259° (W) 05:10:40
JAS-2 23 May 05:22:29 05:27:44 74° 287° (WNW) 05:32:55 435.910
PHONESAT 2.4 23 May 05:29:42 05:31:59 17° 158° (SSE) 05:34:18 2401.200-2431.200
M-CUBED/EXP-1 PRIME 23 May 05:34:29 05:36:05 12° 57° (ENE) 05:37:49 437.505
BEESAT 2 23 May 05:34:35 05:37:15 16° 248° (WSW) 05:39:46 435.950
AUBIESAT-1 23 May 05:46:27 05:48:33 14° 58° (ENE) 05:50:42 437.475
Cosmos 2491 23 May 05:52:51 06:00:05 28° 62° (ENE) 06:07:30 435.465 / 435.565
VERMONT LUNAR 23 May 05:53:47 05:56:37 29° 175° (S) 05:59:27 437.305
STRAND 1 23 May 05:59:09 06:03:06 24° 63° (ENE) 06:07:12 437.568
ISS 23 May 05:59:15 06:02:20 37° 14° (NNE) 06:05:25 145.825
SO-50 23 May 06:18:28 06:22:42 30° 321° (NW) 06:27:01 436.795
AO-7 23 May 06:18:57 06:27:06 57° 296° (WNW) 06:35:10 29.400- 29.500
HORYU 2 23 May 06:23:47 06:26:29 16° 299° (WNW) 06:29:03 437.375
CUTE-I 23 May 06:26:45 06:30:50 22° 91° (E) 06:35:03 437.470
CUBESAT XI-V 23 May 06:27:37 06:32:13 82° 74° (ENE) 06:36:51 437.345
PRISM 23 May 06:33:38 06:37:33 47° 71° (ENE) 06:41:31 437.425
AIST 2 23 May 06:34:02 06:36:26 15° 249° (WSW) 06:38:41 435.215
Cubesat XI-IV 23 May 06:45:32 06:50:18 32° 95° (E) 06:55:07 437.490
YUBILEINY 23 May 06:51:27 06:57:29 22° 79° (E) 07:03:52 435.215
M-CUBED/EXP-1 PRIME 23 May 07:06:10 07:10:32 83° 252° (WSW) 07:14:34 437.505
PHONESAT 2.4 23 May 07:06:27 07:09:34 31° 175° (S) 07:12:42 2401.200-2431.200
JAS-2 23 May 07:10:23 07:12:01 11° 306° (NW) 07:13:22 435.910
AUBIESAT-1 23 May 07:18:41 07:22:59 70° 252° (WSW) 07:26:57 437.475
VERMONT LUNAR 23 May 07:30:42 07:33:24 25° 191° (S) 07:36:07 437.305
ISS 23 May 07:35:39 07:38:52 54° 214° (SSW) 07:42:04 145.825
STRAND 1 23 May 07:37:06 07:42:02 50° 260° (W) 07:47:01 437.568
Cosmos 2491 23 May 07:49:08 07:57:59 75° 265° (W) 08:06:44 435.465 / 435.565
AIST 1 23 May 08:02:43 08:06:47 37° 74° (ENE) 08:10:52
SO-50 23 May 08:03:36 08:04:52 11° 344° (NNW) 08:06:02 436.795
CUTE-I 23 May 08:06:04 08:11:18 55° 290° (WNW) 08:16:31 437.470
CUBESAT XI-V 23 May 08:08:45 08:10:23 11° 275° (W) 08:11:45 437.345
PRISM 23 May 08:10:39 08:13:19 16° 269° (W) 08:15:52 437.425
AO-7 23 May 08:13:30 08:18:18 16° 318° (NW) 08:22:45 29.400- 29.500
Cubesat XI-IV 23 May 08:25:32 08:30:29 38° 293° (WNW) 08:35:23 437.490
BRITE-PL 23 May 08:31:35 08:36:49 36° 94° (E) 08:41:56 437.365/2234.400
DOVE 4 23 May 08:41:31 08:45:03 19° 87° (E) 08:48:38 437.250
PHONESAT 2.4 23 May 08:44:16 08:47:16 27° 191° (SSW) 08:50:16 2401.200-2431.200
YUBILEINY 23 May 08:44:32 08:53:21 85° 280° (W) 09:02:09 435.215
RS-15 23 May 08:48:51 08:57:19 29° 105° (ESE) 09:06:19 29.354- 29.394
CINEMA 3 23 May 08:53:30 08:54:24 11° 83° (E) 08:55:37 145.822/145.860
GOMX 1 23 May 08:56:29 09:01:35 38° 95° (E) 09:06:30 467.674
AAUSAT CUBESAT 2 23 May 08:58:39 09:00:07 12° 87° (E) 09:01:48 437.432
Cosmos 2504 23 May 08:59:05 09:02:02 13° 76° (ENE) 09:05:27 435.465 / 435.565
TIGRISAT 23 May 09:08:54 09:10:23 12° 59° (ENE) 09:12:04 435.000
VERMONT LUNAR 23 May 09:09:24 09:10:00 10° 206° (SSW) 09:10:32 437.305
CANX-2 23 May 09:22:29 09:26:30 41° 97° (E) 09:30:29 2200.000
PCSat 23 May 09:22:42 09:26:32 19° 35° (NE) 09:30:27 145.827
UNISAT 6 23 May 09:25:45 09:28:42 17° 62° (ENE) 09:31:46 437.425
CUTE 1.7 + AOD 2 23 May 09:26:43 09:30:44 41° 98° (E) 09:34:43 437.475
HO-68 23 May 09:33:41 09:40:42 54° 100° (E) 09:47:40 435.675
UWE-3 23 May 09:34:19 09:34:53 10° 84° (E) 09:35:43 435.000/436.395/437.385
AIST 1 23 May 09:40:52 09:44:15 21° 272° (W) 09:47:31
DUCHIFAT 1 23 May 09:43:11 09:43:51 10° 59° (ENE) 09:44:45 145.980
Cosmos 2491 23 May 09:48:24 09:53:27 16° 285° (WNW) 09:57:58 435.465 / 435.565
DELFI C3 23 May 09:53:57 09:56:23 16° 90° (E) 09:58:57 145.870
FUNcube-1 23 May 09:54:43 09:56:45 13° 87° (E) 09:58:59 145.935
SEEDS 23 May 09:56:03 10:00:15 71° 103° (ESE) 10:04:24 437.485
ANTELSAT 23 May 10:07:16 10:11:37 39° 70° (ENE) 10:16:00 437.575/2403.000
BRITE-PL 23 May 10:10:03 10:15:19 38° 292° (WNW) 10:20:25 437.365/2234.400
CUBEBUG 2 23 May 10:11:32 10:15:36 32° 94° (E) 10:19:35 437.445
COMPASS 1 23 May 10:16:15 10:20:26 85° 281° (WNW) 10:24:35 437.405
DOVE 4 23 May 10:18:07 10:23:20 62° 287° (WNW) 10:28:17 437.250
POLYITAN 1 23 May 10:18:40 10:22:06 24° 66° (ENE) 10:25:38 437.675
QB50P1 23 May 10:19:07 10:22:32 24° 66° (ENE) 10:26:01 145.935-145.965
BUGSAT 1 23 May 10:23:19 10:26:06 18° 64° (ENE) 10:29:02 437.445
PHONESAT 2.4 23 May 10:23:26 10:24:45 12° 207° (SSW) 10:26:01 2401.200-2431.200
CINEMA 3 23 May 10:27:37 10:32:32 88° 109° (ESE) 10:37:11 145.822/145.860
ZACube-1 23 May 10:32:00 10:35:58 33° 95° (E) 10:39:52 437.345
AAUSAT CUBESAT 2 23 May 10:32:09 10:36:16 67° 286° (WNW) 10:40:22 437.432
GOMX 1 23 May 10:34:42 10:39:37 34° 294° (WNW) 10:44:19 467.674
TIGRISAT 23 May 10:41:44 10:46:27 81° 75° (ENE) 10:51:08 435.000
UKube-1 23 May 10:43:19 10:46:28 20° 92° (E) 10:49:44 .
VELOX 1 23 May 10:44:40 10:46:02 11° 86° (E) 10:47:40 145.980
YUBILEINY 23 May 10:45:19 10:51:46 21° 304° (WNW) 10:57:52 435.215
DX 1 23 May 10:45:30 10:48:57 23° 93° (E) 10:52:29 434.975-435.025
Cosmos 2504 23 May 10:45:54 10:54:12 66° 94° (E) 11:02:00 435.465 / 435.565
NANOSAT C BR1 23 May 10:51:15 10:55:21 49° 72° (ENE) 10:59:32 145.865
Oscar 11 23 May 10:54:09 10:58:29 85° 284° (WNW) 11:02:46 145.826/435.025
QB50P2 23 May 10:55:59 11:00:10 56° 73° (ENE) 11:04:25 145.880/145.840
RS-15 23 May 10:57:35 11:08:32 84° 308° (NW) 11:19:52 29.354- 29.394
CANX-2 23 May 10:59:00 11:02:12 21° 294° (WNW) 11:05:17 2200.000
UNISAT 6 23 May 11:00:21 11:05:02 65° 259° (WSW) 11:09:42 437.425
HUMSAT D 23 May 11:01:01 11:04:44 30° 95° (E) 11:08:26 437.325/437.525
CUTE 1.7 + AOD 2 23 May 11:03:14 11:06:25 21° 295° (WNW) 11:09:30 437.475
PCSat 23 May 11:05:22 11:10:51 82° 57° (ENE) 11:16:17 145.827
UWE-3 23 May 11:07:41 11:12:12 84° 285° (WNW) 11:16:33 435.000/436.395/437.385
POPSAT HIP 1 23 May 11:09:16 11:13:32 76° 75° (ENE) 11:17:52 437.405
AISAT 23 May 11:12:59 11:16:34 23° 93° (E) 11:20:14 437.250
DUCHIFAT 1 23 May 11:14:44 11:19:01 85° 72° (ENE) 11:23:20 145.980
50 SAT 23 May 11:21:11 11:24:33 28° 95° (E) 11:27:56 437.505
HO-68 23 May 11:21:50 11:28:13 35° 300° (WNW) 11:34:28 435.675
SO-50 23 May 11:26:35 11:30:12 20° 32° (NNE) 11:33:54 436.795
DELFI C3 23 May 11:27:56 11:31:48 46° 288° (WNW) 11:35:39 145.870
FUNcube-1 23 May 11:29:16 11:33:39 65° 286° (WNW) 11:37:54 145.935
SEEDS 23 May 11:33:33 11:35:33 13° 298° (WNW) 11:37:22 437.485
ANTELSAT 23 May 11:44:35 11:48:33 25° 267° (W) 11:52:23 437.575/2403.000
CUBEBUG 2 23 May 11:48:17 11:52:15 29° 293° (WNW) 11:56:01 437.445
POLYITAN 1 23 May 11:53:52 11:57:52 36° 263° (W) 12:01:52 437.675
QB50P1 23 May 11:54:16 11:58:14 36° 263° (W) 12:02:13 145.935-145.965
BUGSAT 1 23 May 11:57:15 12:01:15 47° 261° (W) 12:05:20 437.445
DOVE 4 23 May 11:59:06 12:00:05 10° 305° (NW) 12:00:46 437.250
ESTCUBE 1 23 May 12:05:06 12:09:27 46° 99° (E) 12:13:50 437.505/2401.250
CINEMA 3 23 May 12:06:35 12:09:00 13° 302° (WNW) 12:11:11 145.822/145.860
ZACube-1 23 May 12:08:30 12:12:15 27° 293° (WNW) 12:15:49 437.345
UKube-1 23 May 12:18:42 12:22:51 43° 290° (WNW) 12:26:58 .
VELOX 1 23 May 12:18:45 12:23:16 80° 285° (WNW) 12:27:44 145.980
DX 1 23 May 12:21:15 12:25:21 39° 291° (WNW) 12:29:26 434.975-435.025
TIGRISAT 23 May 12:21:50 12:23:51 12° 274° (W) 12:25:38 435.000
NANOSAT C BR1 23 May 12:28:36 12:31:31 17° 270° (W) 12:34:19 145.865
DANDE 23 May 12:28:52 12:32:45 16° 76° (ENE) 12:37:24 436.750
CUBEBUG 1 23 May 12:29:04 12:33:33 72° 102° (ESE) 12:37:59 437.445
TISAT 1 23 May 12:29:11 12:31:43 16° 89° (E) 12:34:25 437.305
Oscar 11 23 May 12:33:07 12:34:00 10° 301° (WNW) 12:34:41 145.826/435.025
QB50P2 23 May 12:33:54 12:36:29 15° 271° (W) 12:38:56 145.880/145.840
HUMSAT D 23 May 12:36:51 12:40:25 26° 293° (WNW) 12:43:52 437.325/437.525
Cosmos 2504 23 May 12:41:05 12:48:14 29° 295° (WNW) 12:54:50 435.465 / 435.565
Oscar 19 23 May 12:44:15 12:48:48 33° 66° (ENE) 12:53:28 437.125/150
UWE-3 23 May 12:46:44 12:48:01 11° 302° (WNW) 12:49:05 435.000/436.395/437.385
POPSAT HIP 1 23 May 12:48:36 12:50:03 11° 274° (W) 12:51:15 437.405
AISAT 23 May 12:49:06 12:53:19 39° 291° (WNW) 12:57:29 437.250
PCSat 23 May 12:50:21 12:53:39 16° 254° (WSW) 12:56:43 145.827
ITAMSAT 1 23 May 12:51:43 12:54:05 14° 57° (ENE) 12:56:40 435.822/435.867
50 SAT 23 May 12:55:57 12:59:13 25° 292° (WNW) 13:02:24 437.505
Gurwin Techsat 1B 23 May 13:04:24 13:07:32 17° 59° (ENE) 13:10:52 435.225
SO-50 23 May 13:06:30 13:11:30 85° 53° (NE) 13:16:26 436.795
RS-15 23 May 13:12:47 13:22:47 37° 337° (NNW) 13:33:04 29.354- 29.394
GONETS M04 23 May 13:13:24 13:21:17 40° 86° (E) 13:29:20
SPROUT 23 May 13:24:04 13:28:26 80° 103° (ESE) 13:32:46 437.525
CUSAT 1 23 May 13:24:31 13:31:17 50° 91° (E) 13:39:10 437.405
AO-7 23 May 13:39:42 13:44:32 18° 43° (NE) 13:49:39 29.400- 29.500
ESTCUBE 1 23 May 13:42:36 13:46:04 21° 296° (WNW) 13:49:26 437.505/2401.250
JAS-2 23 May 13:55:52 13:58:13 13° 55° (NE) 14:00:46 435.910
VELOX 1 23 May 13:58:02 13:59:07 11° 302° (WNW) 14:00:00 145.980
TISAT 1 23 May 14:03:42 14:07:53 54° 288° (WNW) 14:12:03 437.305
CUBEBUG 1 23 May 14:06:55 14:09:24 15° 299° (WNW) 14:11:44 437.445
DANDE 23 May 14:07:41 14:14:29 75° 97° (E) 14:22:50 436.750
HORYU 2 23 May 14:13:43 14:14:46 11° 58° (ENE) 14:16:02 437.375
Oscar 19 23 May 14:23:20 14:28:08 36° 264° (W) 14:32:55 437.125/150
